Lewiston, WA

3:33 AM PDT on September 26, 2017 (GMT -0700)
Lewiston-Nez Perce County

Weather History for KLWS - October, 2011

Change the Weather History Date:

Saturday, October 22, 2011

  Actual Average Record
Temperature  
Mean Temperature 59 °F 49 °F  
Max Temperature 70 °F 59 °F 80 °F (2003)
Min Temperature 47 °F 39 °F 26 °F (1984)
Degree Days  
Heating Degree Days 6 16  
Month to date heating degree days 212 254  
Since 1 July heating degree days 236 368  
Cooling Degree Days 0 0  
Month to date cooling degree days 8 1  
Year to date cooling degree days 742 805  
Growing Degree Days 8 (Base 50)    
Moisture  
Dew Point 48 °F    
Average Humidity 70    
Maximum Humidity 100    
Minimum Humidity 40    
Precipitation  
Precipitation T in 0.03 in 0.98 in (1899)
Month to date precipitation 0.96 0.63  
Year to date precipitation 11.87 9.83  
Snow  
Snow 0.00 in 0.00 in 0.00 in (1995)
Month to date snowfall 0.0 0.0  
Since 1 July snowfall 0.0 0.0  
Since 1 September snowfall 0.0 0.0  
Snow Depth 0.00 in    
Sea Level Pressure  
Sea Level Pressure 30.18 in    
Wind  
Wind Speed 3 mph (SE)    
Max Wind Speed 9 mph    
Max Gust Speed 13 mph    
Visibility 4 miles    
Events Fog    
T = Trace of Precipitation, MM = Missing Value Source: NWS Daily Summary

Daily Weather History Graph

Daily Weather History Graph

Search for Another Location

Airport or City:

Trip Planner

Search our weather history database for the weather conditions in past years. The results will help you decide how hot, cold, wet, or windy it might be!

Date:

Astronomy

Oct. 22, 2011 Rise Set
Actual Time 7:14 AM PDT 5:49 PM PDT
Civil Twilight 6:44 AM PDT 6:20 PM PDT
Nautical Twilight 6:09 AM PDT 6:55 PM PDT
Astronomical Twilight 5:34 AM PDT 7:29 PM PDT
Moon 2:01 AM PDT (10/22) 3:23 PM PDT (10/22)
Length of Visible Light 11h 36m
Length of Day
10h 34m
Waning Crescent, 22% of the Moon is Illuminated
Oct 22
Waning Crescent
Oct 26
New
Nov 2
First Quarter
Nov 10
Full
Nov 18
Last Quarter

Hourly Weather History & Observations

Time (PDT) Temp. Dew Point Humidity Pressure Visibility Wind Dir Wind Speed Gust Speed Precip Events Conditions
12:56 AM 50.0 °F 46.9 °F 89% 30.22 in 10.0 mi South 3.5 mph - N/A   Scattered Clouds
1:56 AM 48.9 °F 46.0 °F 90% 30.23 in 7.0 mi SE 5.8 mph - N/A   Scattered Clouds
2:56 AM 50.0 °F 48.0 °F 93% 30.23 in 2.0 mi East 4.6 mph - N/A   Partly Cloudy
3:07 AM 50.0 °F 48.2 °F 94% 30.22 in 4.0 mi ESE 4.6 mph - N/A   Mostly Cloudy
3:56 AM 51.1 °F 48.9 °F 92% 30.22 in 8.0 mi Calm Calm - N/A   Mostly Cloudy
4:04 AM 51.8 °F 48.2 °F 88% 30.21 in 8.0 mi East 3.5 mph - N/A   Mostly Cloudy
4:44 AM 48.2 °F 48.2 °F 100% 30.21 in 1.5 mi North 3.5 mph - N/A   Partly Cloudy
4:48 AM 48.2 °F 46.4 °F 93% 30.21 in 0.8 mi Calm Calm - N/A   Scattered Clouds
4:56 AM 48.9 °F 48.0 °F 97% 30.22 in 0.2 mi Calm Calm - N/A Fog Fog
5:17 AM 48.2 °F 46.4 °F 93% 30.21 in 0.2 mi Calm Calm - N/A Fog Fog
5:32 AM 48.2 °F 46.4 °F 93% 30.20 in 0.5 mi Calm Calm - N/A Fog Fog
5:49 AM 48.2 °F 46.4 °F 93% 30.19 in 0.2 mi Calm Calm - N/A Fog Fog
6:16 AM 48.2 °F 48.2 °F 100% 30.19 in 0.2 mi Calm Calm - N/A Fog Fog
6:56 AM 50.0 °F 48.9 °F 96% 30.20 in 0.1 mi Calm Calm - N/A Fog Fog
7:32 AM 48.2 °F 46.4 °F 93% 30.18 in 0.1 mi SSE 4.6 mph - N/A Fog Fog
7:56 AM 48.9 °F 48.0 °F 97% 30.19 in 0.1 mi Calm Calm - N/A Fog Fog
8:38 AM 50.0 °F 48.2 °F 94% 30.17 in 0.1 mi North 3.5 mph - N/A Fog Fog
8:56 AM 50.0 °F 48.9 °F 96% 30.19 in 0.1 mi North 4.6 mph - N/A Fog Fog
9:06 AM 50.0 °F 48.2 °F 94% 30.19 in 0.5 mi North 3.5 mph - N/A Fog Fog
9:21 AM 50.0 °F 48.2 °F 94% 30.19 in 1.0 mi Calm Calm - N/A   Mostly Cloudy
9:44 AM 51.8 °F 48.2 °F 88% 30.19 in 1.5 mi Calm Calm - N/A   Mostly Cloudy
9:56 AM 51.1 °F 48.9 °F 92% 30.20 in 1.5 mi Calm Calm - N/A   Mostly Cloudy
10:30 AM 51.8 °F 50.0 °F 94% 30.18 in 2.5 mi Calm Calm - N/A   Mostly Cloudy
10:38 AM 53.6 °F 50.0 °F 88% 30.18 in 3.0 mi Calm Calm - N/A   Overcast
10:56 AM 53.1 °F 51.1 °F 93% 30.18 in 3.0 mi Calm Calm - N/A   Overcast
11:56 AM 53.1 °F 50.0 °F 89% 30.17 in 3.0 mi NNW 3.5 mph - N/A   Overcast
12:56 PM 54.0 °F 51.1 °F 90% 30.16 in 3.0 mi NNW 4.6 mph - 0.00 in   Overcast
1:56 PM 61.0 °F 50.0 °F 67% 30.15 in 10.0 mi East 3.5 mph - N/A   Mostly Cloudy
2:56 PM 66.0 °F 50.0 °F 56% 30.14 in 10.0 mi Variable 3.5 mph - N/A   Scattered Clouds
3:56 PM 66.9 °F 46.9 °F 49% 30.13 in 10.0 mi West 5.8 mph - N/A   Clear
4:56 PM 69.1 °F 45.0 °F 42% 30.12 in 10.0 mi WSW 12.7 mph - N/A   Scattered Clouds
5:56 PM 64.9 °F 46.0 °F 50% 30.12 in 10.0 mi SSW 10.4 mph - N/A   Mostly Cloudy
6:56 PM 62.1 °F 46.0 °F 56% 30.13 in 10.0 mi SW 8.1 mph - N/A   Clear
8:56 PM 60.1 °F 46.0 °F 60% 30.11 in 10.0 mi SSW 5.8 mph - N/A   Partly Cloudy
9:56 PM 59.0 °F 46.0 °F 62% 30.12 in 10.0 mi SSE 3.5 mph - N/A   Clear
10:56 PM 55.0 °F 46.9 °F 74% 30.12 in 10.0 mi Calm Calm - N/A   Mostly Cloudy
11:56 PM 57.0 °F 46.9 °F 69% 30.11 in 10.0 mi Calm Calm - N/A   Mostly Cloudy